{"data":{"norad_id":33056,"epoch":"2026-09-19T22:18:13.139136Z","epoch_age_seconds":63746,"freshness":"FRESH","line1":"1 33056U 08030B   26262.92931874  .00000142  00000+0  00000+0 0  9994","line2":"2 33056   0.0439  80.9990 0004387  77.3203 217.0800  1.00270491 53307","mean_motion":1.00270491,"eccentricity":0.0004387,"inclination_deg":0.0439,"raan_deg":80.999,"arg_perigee_deg":77.3203,"mean_anomaly_deg":217.08,"bstar":0,"rev_number":5330,"period_min":1436.1154369933,"perigee_km":35768.459893212,"apogee_km":35805.455547319,"semimajor_km":42165.094720265,"source":"CELESTRAK","updated_at":"2026-09-20T09:00:35.133325Z"}}